Location: アルンシュタイン
(50.0000°N, 10.0000°E)
Time: 05:43:40
(UTC+01:00)

YUBILEINY - Visible Passes

Search period start: 25 January 2022 00:00
Search period end: 04 February 2022 00:00
Orbit: 1479 x 1508 km, 82.5° (Epoch: 24 January)

Date Brightness Start Highest point End Pass type
(mag) Time Alt. Az. Time Alt. Az. Time Alt. Az.
25 Jan ? 19:51:33 10° N 19:57:20 30° NE 19:57:20 30° NE visible
25 Jan ? 21:48:11 10° NNW 21:53:16 39° NNW 21:53:16 39° NNW visible
25 Jan ? 23:46:57 10° NW 23:49:12 15° NW 23:49:12 15° NW visible
26 Jan ? 19:02:26 10° N 19:08:31 21° NE 19:08:31 21° NE visible
26 Jan ? 20:58:30 10° N 21:04:27 47° N 21:04:27 47° N visible
26 Jan ? 22:56:09 10° NNW 23:00:23 25° NW 23:00:23 25° NW visible
27 Jan ? 18:14:00 10° NNE 18:17:40 13° NE 18:19:45 12° NE visible
27 Jan ? 20:09:00 10° N 20:15:40 42° NE 20:15:40 42° NE visible
27 Jan ? 22:06:00 10° NNW 22:11:37 39° NW 22:11:37 39° NW visible
28 Jan ? 00:07:12 10° NW 00:07:33 10° WNW 00:07:33 10° WNW visible
28 Jan ? 19:19:41 10° N 19:26:57 29° ENE 19:26:57 29° ENE visible
28 Jan ? 21:16:10 10° NNW 21:22:53 58° NNW 21:22:53 58° NNW visible
28 Jan ? 23:14:31 10° NNW 23:18:50 19° WNW 23:18:50 19° WNW visible
29 Jan ? 18:30:42 10° N 18:36:21 18° NE 18:38:17 17° ENE visible
29 Jan ? 20:26:32 10° N 20:34:13 60° NE 20:34:13 60° NE visible
29 Jan ? 22:23:58 10° NNW 22:30:10 33° WNW 22:30:10 33° WNW visible
30 Jan ? 17:42:52 10° NNE 17:45:10 11° NE 17:47:29 10° NE visible
30 Jan ? 19:37:06 10° N 19:45:16 40° ENE 19:45:37 40° ENE visible
30 Jan ? 21:33:56 10° NNW 21:41:35 56° WNW 21:41:35 56° WNW visible
30 Jan ? 23:33:40 10° NW 23:37:14 13° WNW 23:37:32 13° WNW visible
31 Jan ? 18:47:51 10° N 18:54:50 25° NE 18:57:06 23° ENE visible
31 Jan ? 20:44:10 10° N 20:53:02 88° E 20:53:04 88° E visible
31 Jan ? 22:42:11 10° NNW 22:48:41 24° WNW 22:49:02 24° W visible
01 Feb ? 17:59:03 10° N 18:03:58 16° NE 18:08:42 10° E visible
01 Feb ? 19:54:36 10° N 20:03:14 56° ENE 20:04:40 51° ESE visible
01 Feb ? 21:51:50 10° NNW 21:59:48 41° W 22:00:39 40° W visible
02 Feb ? 07:12:02 10° E 07:14:48 12° ENE 07:17:35 10° NE visible
02 Feb ? 19:05:13 10° N 19:13:05 35° ENE 19:16:25 27° E visible
02 Feb ? 21:01:54 10° NNW 21:10:35 67° W 21:12:24 55° SW visible
02 Feb ? 23:00:53 10° NW 23:05:36 16° WNW 23:08:23 14° W visible
03 Feb ? 18:16:04 10° N 18:22:32 22° NE 18:28:22 11° E visible
03 Feb ? 20:12:11 10° N 20:21:02 77° ENE 20:24:22 43° SSE visible
03 Feb ? 22:09:55 10° NNW 22:16:57 28° W 22:20:23 22° WSW visible
